User: anonymous   Login
Location: Unspecified
(0.0000°N, 0.0000°E)
Time: 10:15:31
(UTC+00:00)
Language:

S-NET B - Orbit

View from above orbital plane
View from above orbital plane
View from above satellite
View from above satellite

Ground track
Ground track

The orbit data is extracted from the following two-line orbital elements,

1 43187U 18014H   19107.78128234 -.00000096 +00000-0 -32921-5 0  9999
2 43187 097.7134 017.1137 0010076 205.9069 154.1649 14.96616606065872
Epoch (UTC): 17 April 2019 18:45:02
Eccentricity: 0.0010076
inclination: 97.7134°
perigee height: 570 km
apogee height: 584 km
right ascension of ascending node: 17.1137°
argument of perigee: 205.9069°
revolutions per day: 14.96616606
mean anomaly at epoch: 154.1649°
orbit number at epoch: 6587

The dashed part of the orbit path shows where the satellite is in the earth's shadow,  

DLR